EW5759 Weather Reports


time (UTC)temp
F
wind
direction
speed
knots
gust
knots
rain 1hr
in
rain 24hr
in
rain mn
in
humidity
%
barometer
mb
20260506104030 63 164 7.8 16.5 0.00 0.00 0.00 70 1007.8
20260506103531 64 150 8.7 16.5 0.00 0.00 0.00 68 1007.7
20260506103059 64 153 8.7 14.8 0.00 0.00 0.00 67 1007.7
20260506102529 64 200 7.8 15.6 0.00 0.00 0.00 66 1007.6
20260506102031 64 161 8.7 15.6 0.00 0.00 0.00 65 1007.4
20260506101549 64 160 10.4 14.8 0.00 0.00 0.00 65 1007.3
20260506101028 64 161 7.8 15.6 0.00 0.00 0.00 65 1007.4
20260506100531 64 163 8.7 15.6 0.00 0.00 0.00 65 1007.2
20260506100053 64 123 7.8 13.0 0.00 0.00 0.00 65 1007.1
20260506095535 64 161 7.8 13.0 0.00 0.00 0.00 64 1007.0
20260506095028 64 163 8.7 12.2 0.00 0.00 0.00 64 1007.1
20260506094539 64 154 7.0 12.2 0.00 0.00 0.00 64 1007.1
20260506094031 64 160 7.8 11.3 0.00 0.00 0.00 64 1007.1
20260506093531 64 164 7.0 10.4 0.00 0.00 0.00 64 1007.1
20260506093045 64 188 6.1 10.4 0.00 0.00 0.00 63 1007.2
20260506092532 65 159 5.2 12.2 0.00 0.00 0.00 63 1007.2
20260506092031 64 148 7.8 12.2 0.00 0.00 0.00 63 1007.1
20260506091544 65 170 5.2 8.7 0.00 0.00 0.00 63 1007.3
20260506091031 65 187 5.2 8.7 0.00 0.00 0.00 63 1007.4
20260506090533 65 179 5.2 8.7 0.00 0.00 0.00 63 1007.3
20260506090043 65 186 3.5 8.7 0.00 0.00 0.00 63 1007.5
20260506085531 65 156 4.3 10.4 0.00 0.00 0.00 62 1007.4
20260506085031 65 194 4.3 10.4 0.00 0.00 0.00 62 1007.6
20260506084543 65 195 5.2 9.6 0.00 0.00 0.00 61 1007.7
20260506084031 65 165 4.3 9.6 0.00 0.00 0.00 61 1007.7
20260506083528 65 167 5.2 9.6 0.00 0.00 0.00 61 1007.8
20260506083040 65 158 6.1 12.2 0.00 0.00 0.00 60 1007.7
20260506082531 65 152 6.1 12.2 0.00 0.00 0.00 60 1007.9
20260506082028 65 204 5.2 10.4 0.00 0.00 0.00 60 1007.7
20260506081545 65 170 6.1 8.7 0.00 0.00 0.00 60 1007.9
20260506081035 65 165 5.2 8.7 0.00 0.00 0.00 60 1007.9
20260506080532 65 160 5.2 8.7 0.00 0.00 0.00 59 1007.9
20260506073529 65 126 5.2 7.8 0.00 0.00 0.00 58 1007.5
20260506073046 65 129 3.5 8.7 0.00 0.00 0.00 58 1007.5
20260506072529 65 152 5.2 10.4 0.00 0.00 0.00 57 1007.6
20260506072028 65 172 7.0 10.4 0.00 0.00 0.00 57 1007.7
20260506071539 65 167 6.1 11.3 0.00 0.00 0.00 57 1007.7
20260506071033 65 165 6.1 11.3 0.00 0.00 0.00 57 1007.7
20260506070531 65 148 7.0 11.3 0.00 0.00 0.00 56 1007.7
20260506062030 64 148 5.2 7.8 0.00 0.00 0.00 58 1008.3
20260506061542 64 138 4.3 7.0 0.00 0.00 0.00 58 1008.5
20260506061029 64 139 5.2 7.0 0.00 0.00 0.00 58 1008.6
20260506060529 64 150 4.3 6.1 0.00 0.00 0.00 58 1008.7
20260506051033 64 142 3.5 4.3 0.00 0.00 0.00 55 1009.3
20260506050532 65 148 3.5 5.2 0.00 0.00 0.00 54 1009.3
20260506045030 64 149 3.5 5.2 0.00 0.00 0.00 55 1009.5
20260506044557 64 145 3.5 4.3 0.00 0.00 0.00 55 1009.4
20260506044029 64 143 3.5 4.3 0.00 0.00 0.00 54 1009.4
20260506043529 64 143 3.5 5.2 0.00 0.00 0.00 54 1009.4
20260506043044 64 141 4.3 5.2 0.00 0.00 0.00 52 1009.4
20260506042531 65 147 4.3 7.8 0.00 0.00 0.00 51 1009.3
20260506042029 66 150 4.3 7.8 0.00 0.00 0.00 49 1009.4
20260506041548 67 153 5.2 7.8 0.00 0.00 0.00 47 1009.4
20260506041028 67 162 4.3 7.0 0.00 0.00 0.00 46 1009.4
20260506040530 67 155 3.5 8.7 0.00 0.00 0.00 46 1009.4
20260506040046 67 162 4.3 8.7 0.00 0.00 0.00 46 1009.4
20260506035532 67 169 4.3 8.7 0.00 0.00 0.00 45 1009.3
20260506035028 67 160 5.2 7.0 0.00 0.00 0.00 46 1009.3
20260506034543 67 160 4.3 6.1 0.00 0.00 0.00 46 1009.3
20260506034031 67 151 4.3 6.1 0.00 0.00 0.00 46 1009.3
20260506033531 67 151 4.3 6.1 0.00 0.00 0.00 46 1009.3
20260506033042 66 163 4.3 6.1 0.00 0.00 0.00 47 1009.3
20260506032528 66 152 3.5 6.1 0.00 0.00 0.00 47 1009.3
20260506032031 66 148 3.5 6.1 0.00 0.00 0.00 47 1009.3
20260506031544 66 143 3.5 7.0 0.00 0.00 0.00 46 1009.2
20260506031030 67 146 3.5 7.0 0.00 0.00 0.00 46 1009.2
20260506030528 67 150 2.6 6.1 0.00 0.00 0.00 45 1009.2
20260506030044 68 153 3.5 7.8 0.00 0.00 0.00 44 1009.2
20260506025530 68 155 4.3 8.7 0.00 0.00 0.00 42 1009.2
20260506025033 68 160 5.2 8.7 0.00 0.00 0.00 42 1009.3
20260506024548 68 167 5.2 7.8 0.00 0.00 0.00 43 1009.3
20260506024029 68 176 4.3 7.8 0.00 0.00 0.00 42 1009.3
20260506023531 68 165 4.3 7.8 0.00 0.00 0.00 42 1009.3
20260506023054 69 174 4.3 7.8 0.00 0.00 0.00 42 1009.2
20260506022528 69 160 5.2 7.8 0.00 0.00 0.00 41 1009.2
20260506022031 70 149 4.3 7.8 0.00 0.00 0.00 41 1009.3
20260506021547 70 150 5.2 8.7 0.00 0.00 0.00 40 1009.3
20260506021029 70 184 4.3 8.7 0.00 0.00 0.00 39 1009.3
20260506020528 70 189 6.1 8.7 0.00 0.00 0.00 39 1009.2
20260506020047 70 209 5.2 8.7 0.00 0.00 0.00 40 1009.3
20260506015529 70 175 3.5 7.8 0.00 0.00 0.00 40 1009.3
20260506015034 70 160 4.3 8.7 0.00 0.00 0.00 40 1009.3
20260506014545 70 181 4.3 8.7 0.00 0.00 0.00 41 1009.2
20260506014030 70 198 4.3 8.7 0.00 0.00 0.00 41 1009.3
20260506013529 70 183 5.2 8.7 0.00 0.00 0.00 41 1009.2
20260506013043 70 179 6.1 8.7 0.00 0.00 0.00 42 1009.2
20260506012531 70 167 5.2 8.7 0.00 0.00 0.00 42 1009.0
20260506012030 70 152 6.1 8.7 0.00 0.00 0.00 43 1009.0
20260506011542 69 148 5.2 7.0 0.00 0.00 0.00 43 1009.0
20260506011030 70 155 4.3 7.0 0.00 0.00 0.00 43 1008.9
20260506010529 70 150 4.3 7.0 0.00 0.00 0.00 43 1008.7
20260506010100 70 165 4.3 7.0 0.00 0.00 0.00 42 1008.7
20260506005528 71 160 4.3 6.1 0.00 0.00 0.00 41 1008.6
20260506005028 72 162 3.5 7.0 0.00 0.00 0.00 40 1008.6
20260506004548 72 144 4.3 7.8 0.00 0.00 0.00 39 1008.6
20260506004028 72 200 4.3 7.8 0.00 0.00 0.00 38 1008.6
20260506003529 73 208 5.2 7.8 0.00 0.00 0.00 38 1008.5
20260506003045 73 205 4.3 7.8 0.00 0.00 0.00 38 1008.5
20260506002528 73 193 3.5 7.8 0.00 0.00 0.00 38 1008.5
20260506002030 73 161 4.3 8.7 0.00 0.00 0.00 37 1008.4
20260506001547 74 211 4.3 13.0 0.00 0.00 0.00 37 1008.3
20260506001029 74 159 6.1 13.0 0.00 0.00 0.00 37 1008.1
20260506000531 74 143 6.1 13.0 0.00 0.00 0.00 37 1008.1
20260506000042 74 213 7.0 12.2 0.00 0.00 0.00 37 1008.1
20260505235528 74 165 7.8 12.2 0.00 0.00 0.00 37 1007.9
20260505235029 74 159 5.2 12.2 0.00 0.00 0.00 38 1008.0
20260505234601 75 164 6.1 10.4 0.00 0.00 0.00 38 1007.9
20260505234035 75 186 7.0 10.4 0.00 0.00 0.00 38 1007.9
20260505233531 75 198 7.0 13.9 0.00 0.00 0.00 38 1007.8
20260505233050 75 184 6.1 13.9 0.00 0.00 0.00 38 1007.8
20260505232528 75 184 7.8 13.9 0.00 0.00 0.00 38 1007.9
20260505232029 76 189 6.1 13.0 0.00 0.00 0.00 38 1007.8
20260505231545 76 167 7.8 14.8 0.00 0.00 0.00 38 1007.8
20260505231030 76 176 7.8 14.8 0.00 0.00 0.00 38 1007.7
20260505230530 76 172 9.6 14.8 0.00 0.00 0.00 38 1007.7
20260505230043 76 167 8.7 13.0 0.00 0.00 0.00 39 1007.7
20260505225528 76 189 8.7 13.0 0.00 0.00 0.00 39 1007.7
20260505225030 76 174 7.8 16.5 0.00 0.00 0.00 38 1007.7
20260505224542 76 172 8.7 16.5 0.00 0.00 0.00 39 1007.7
20260505224033 76 185 7.0 12.2 0.00 0.00 0.00 39 1007.7
20260505223530 77 182 7.0 12.2 0.00 0.00 0.00 39 1007.7
20260505223047 77 173 8.7 13.9 0.00 0.00 0.00 38 1007.7
20260505222535 77 200 7.8 13.9 0.00 0.00 0.00 38 1007.7
20260505222032 77 184 8.7 14.8 0.00 0.00 0.00 37 1007.8
20260505221545 78 155 9.6 16.5 0.00 0.00 0.00 35 1007.7
20260505221031 78 186 8.7 20.0 0.00 0.00 0.00 31 1007.7
20260505220530 78 164 8.7 20.9 0.00 0.00 0.00 31 1007.6
20260505220045 78 155 9.6 20.9 0.00 0.00 0.00 31 1007.7
20260505215530 78 188 10.4 20.0 0.00 0.00 0.00 30 1007.7
20260505215030 78 215 8.7 20.0 0.00 0.00 0.00 30 1007.7
20260505214601 79 184 12.2 19.1 0.00 0.00 0.00 30 1007.7
20260505214028 79 202 11.3 19.1 0.00 0.00 0.00 30 1007.6
20260505213530 79 207 11.3 20.9 0.00 0.00 0.00 30 1007.6
20260505213046 80 181 10.4 20.9 0.00 0.00 0.00 30 1007.7
20260505212531 80 202 10.4 22.6 0.00 0.00 0.00 30 1007.6
20260505212029 81 193 10.4 25.2 0.00 0.00 0.00 31 1007.5
20260505211546 80 187 15.6 25.2 0.00 0.00 0.00 29 1007.5
20260505211033 80 215 12.2 22.6 0.00 0.00 0.00 31 1007.5
20260505210527 80 205 13.9 22.6 0.00 0.00 0.00 30 1007.6
20260505210049 80 176 8.7 22.6 0.00 0.00 0.00 33 1007.4
20260505205531 81 204 11.3 22.6 0.00 0.00 0.00 33 1007.6
20260505205030 81 179 12.2 21.7 0.00 0.00 0.00 32 1007.5
20260505204554 81 179 14.8 21.7 0.00 0.00 0.00 31 1007.3
20260505204027 81 202 7.8 19.1 0.00 0.00 0.00 33 1007.7
20260505203530 80 186 13.9 19.1 0.00 0.00 0.00 35 1007.6
20260505203049 80 200 10.4 18.2 0.00 0.00 0.00 34 1007.6
20260505202530 80 174 10.4 19.1 0.00 0.00 0.00 34 1007.6
20260505202027 80 216 12.2 19.1 0.00 0.00 0.00 33 1007.6
20260505201550 80 154 10.4 18.2 0.00 0.00 0.00 34 1007.7
20260505201028 80 229 10.4 16.5 0.00 0.00 0.00 34 1007.7
20260505200531 80 227 8.7 16.5 0.00 0.00 0.00 35 1007.7
20260505200058 80 215 10.4 16.5 0.00 0.00 0.00 37 1007.8
20260505195530 81 215 10.4 16.5 0.00 0.00 0.00 35 1007.7
20260505195029 81 150 9.6 19.1 0.00 0.00 0.00 35 1007.9
20260505194547 80 205 9.6 19.1 0.00 0.00 0.00 35 1007.7
20260505194031 80 223 10.4 19.1 0.00 0.00 0.00 37 1007.9
20260505193530 80 225 8.7 17.4 0.00 0.00 0.00 37 1008.0
20260505193048 79 185 9.6 18.2 0.00 0.00 0.00 40 1008.0
20260505192533 79 197 11.3 21.7 0.00 0.00 0.00 36 1008.2
20260505192030 79 141 11.3 21.7 0.00 0.00 0.00 37 1008.2
20260505191540 79 187 10.4 18.2 0.00 0.00 0.00 39 1008.2
20260505191030 79 163 7.8 16.5 0.00 0.00 0.00 40 1008.3
20260505190528 80 208 9.6 15.6 0.00 0.00 0.00 38 1008.3
20260505190039 79 178 7.0 18.2 0.00 0.00 0.00 38 1008.3
20260505185528 79 243 9.6 19.1 0.00 0.00 0.00 36 1008.4
20260505185030 79 196 9.6 19.1 0.00 0.00 0.00 37 1008.5
20260505184545 79 228 10.4 19.1 0.00 0.00 0.00 38 1008.5
20260505184031 79 176 7.8 15.6 0.00 0.00 0.00 40 1008.6
20260505183531 79 239 10.4 18.2 0.00 0.00 0.00 38 1008.7
20260505183044 79 240 9.6 18.2 0.00 0.00 0.00 38 1008.8
20260505182527 79 213 10.4 15.6 0.00 0.00 0.00 38 1008.8
20260505182028 79 220 9.6 15.6 0.00 0.00 0.00 38 1008.9
20260505181543 79 180 7.0 13.9 0.00 0.00 0.00 40 1008.9
20260505181029 79 216 8.7 13.0 0.00 0.00 0.00 39 1009.0
20260505180529 79 158 7.0 15.6 0.00 0.00 0.00 39 1008.9
20260505175530 78 235 10.4 15.6 0.00 0.00 0.00 38 1009.1
20260505175034 78 212 7.8 13.0 0.00 0.00 0.00 37 1009.2
20260505174559 78 218 5.2 13.0 0.00 0.00 0.00 39 1009.1
20260505174030 78 255 6.1 13.0 0.00 0.00 0.00 38 1009.0
20260505173531 78 203 5.2 12.2 0.00 0.00 0.00 40 1009.2
20260505173047 78 272 7.8 14.8 0.00 0.00 0.00 41 1009.3
20260505172527 78 209 8.7 19.1 0.00 0.00 0.00 39 1009.3
20260505172028 78 160 9.6 19.1 0.00 0.00 0.00 38 1009.3
20260505171543 78 195 7.8 16.5 0.00 0.00 0.00 39 1009.1
20260505171031 78 233 9.6 16.5 0.00 0.00 0.00 38 1009.3
20260505170530 78 238 7.0 18.2 0.00 0.00 0.00 40 1009.5
20260505170049 78 198 8.7 18.2 0.00 0.00 0.00 38 1009.6
20260505165529 77 217 8.7 18.2 0.00 0.00 0.00 39 1009.7
20260505165029 77 236 8.7 14.8 0.00 0.00 0.00 39 1009.8
20260505164549 78 212 5.2 18.2 0.00 0.00 0.00 42 1009.9
20260505164030 77 145 8.7 18.2 0.00 0.00 0.00 38 1010.1
20260505163531 77 221 7.8 15.6 0.00 0.00 0.00 38 1009.9
20260505163047 77 257 9.6 15.6 0.00 0.00 0.00 40 1010.1
20260505162530 77 190 7.8 16.5 0.00 0.00 0.00 40 1010.2
20260505162029 77 212 8.7 16.5 0.00 0.00 0.00 40 1010.3
20260505161543 77 190 7.8 14.8 0.00 0.00 0.00 41 1010.3
20260505161028 77 214 7.0 16.5 0.00 0.00 0.00 42 1010.4
20260505160530 77 203 7.0 16.5 0.00 0.00 0.00 45 1010.6
20260505153044 76 252 7.8 16.5 0.00 0.00 0.00 45 1010.7
20260505152535 76 206 5.2 11.3 0.00 0.00 0.00 47 1010.6
20260505152029 75 262 6.1 11.3 0.00 0.00 0.00 47 1010.7
20260505151544 75 217 6.1 13.9 0.00 0.00 0.00 48 1010.7
20260505151033 75 245 6.1 13.9 0.00 0.00 0.00 48 1010.7
20260505150534 74 154 6.1 13.0 0.00 0.00 0.00 48 1010.6
20260505140529 72 251 7.0 14.8 0.00 0.00 0.00 49 1010.8
20260505125031 66 161 7.8 12.2 0.00 0.00 0.00 60 1011.2
20260505124546 65 165 7.0 12.2 0.00 0.00 0.00 62 1011.2
20260505124029 65 184 7.0 12.2 0.00 0.00 0.00 61 1011.3
20260505123530 65 165 7.0 11.3 0.00 0.00 0.00 63 1011.3
20260505123101 64 179 6.1 11.3 0.00 0.00 0.00 64 1011.4
20260505122536 64 154 7.0 11.3 0.00 0.00 0.00 65 1011.4
20260505122035 64 202 7.0 11.3 0.00 0.00 0.00 65 1011.4
20260505121540 63 160 6.1 10.4 0.00 0.00 0.00 66 1011.5
20260505121029 63 177 6.1 12.2 0.00 0.00 0.00 66 1011.6
20260505120530 62 214 7.0 12.2 0.00 0.00 0.00 66 1011.5
20260505120046 62 185 7.0 12.2 0.00 0.00 0.00 66 1011.5
20260505115531 62 157 6.1 9.6 0.00 0.00 0.00 68 1011.4
20260505115035 61 164 6.1 10.4 0.00 0.00 0.00 68 1011.4
20260505114544 61 167 7.0 10.4 0.00 0.00 0.00 67 1011.4
20260505114032 61 160 6.1 7.8 0.00 0.00 0.00 68 1011.4
20260505113530 61 159 4.3 7.0 0.00 0.00 0.00 70 1011.3
20260505113041 60 159 4.3 7.0 0.00 0.00 0.00 71 1011.3
20260505112534 60 175 4.3 7.0 0.00 0.00 0.00 72 1011.1
20260505112032 59 162 4.3 7.0 0.00 0.00 0.00 72 1011.2
20260505111547 59 153 3.5 5.2 0.00 0.00 0.00 74 1011.1
20260505111032 58 150 3.5 5.2 0.00 0.00 0.00 73 1011.0
20260505110530 58 153 3.5 5.2 0.00 0.00 0.00 74 1011.1